Parkersburg, WV

12:26 AM EDT on September 20, 2017 (GMT -0400)
Wood County Wilson

Weather History for KPKB - October, 2012

Change the Weather History Date:

Saturday, October 6, 2012

  Actual Average Record
Temperature  
Mean Temperature 56 °F 58 °F  
Max Temperature 65 °F 70 °F 89 °F (1941)
Min Temperature 46 °F 47 °F 28 °F (1892)
Degree Days  
Heating Degree Days 9 8  
Month to date heating degree days 19 41  
Since 1 July heating degree days 120 117  
Cooling Degree Days 0 1  
Month to date cooling degree days 12 6  
Year to date cooling degree days 1172 942  
Growing Degree Days 5 (Base 50)    
Moisture  
Dew Point 43 °F    
Average Humidity 64    
Maximum Humidity 93    
Minimum Humidity 35    
Precipitation  
Precipitation 0.07 in 0.09 in 0.52 in (2014)
Month to date precipitation 0.34 0.53  
Year to date precipitation 33.14 32.40  
Sea Level Pressure  
Sea Level Pressure 30.04 in    
Wind  
Wind Speed 6 mph (WNW)    
Max Wind Speed 21 mph    
Max Gust Speed 28 mph    
Visibility 10 miles    
Events Rain    
T = Trace of Precipitation, MM = Missing Value Source: NWS Daily Summary

Daily Weather History Graph

Daily Weather History Graph

Search for Another Location

Airport or City:

Trip Planner

Search our weather history database for the weather conditions in past years. The results will help you decide how hot, cold, wet, or windy it might be!

Date:

Astronomy

Oct. 06, 2012 Rise Set
Actual Time 7:27 AM EDT 6:59 PM EDT
Civil Twilight 7:00 AM EDT 7:26 PM EDT
Nautical Twilight 6:29 AM EDT 7:57 PM EDT
Astronomical Twilight 5:58 AM EDT 8:28 PM EDT
Moon 11:15 PM EDT (10/6) 1:19 PM EDT (10/6)
Length of Visible Light 12h 26m
Length of Day
11h 32m
Waning Gibbous, 65% of the Moon is Illuminated
Oct 6
Waning Gibbous
Oct 8
Last Quarter
Oct 15
New
Oct 21
First Quarter
Oct 29
Full

Hourly Weather History & Observations

Time (EDT) Temp. Windchill Dew Point Humidity Pressure Visibility Wind Dir Wind Speed Gust Speed Precip Events Conditions
12:53 AM 64.0 °F - 55.0 °F 73% 29.90 in 10.0 mi South 5.8 mph - N/A   Clear
1:53 AM 64.0 °F - 55.0 °F 73% 29.89 in 10.0 mi West 4.6 mph - N/A   Partly Cloudy
2:53 AM 60.1 °F - 55.0 °F 83% 29.91 in 10.0 mi NW 10.4 mph 18.4 mph N/A   Overcast
3:11 AM 57.2 °F - 53.6 °F 88% 29.94 in 10.0 mi WNW 10.4 mph 24.2 mph N/A   Overcast
3:53 AM 53.1 °F - 46.9 °F 80% 29.95 in 10.0 mi WNW 20.7 mph 27.6 mph N/A   Overcast
4:10 AM 51.8 °F - 46.4 °F 82% 29.99 in 10.0 mi NW 17.3 mph 24.2 mph N/A   Overcast
4:17 AM 51.8 °F - 46.4 °F 82% 30.00 in 10.0 mi WNW 15.0 mph 24.2 mph 0.00 in Rain Light Rain
4:39 AM 50.0 °F - 46.4 °F 87% 29.96 in 5.0 mi ENE 4.6 mph - 0.03 in Rain Light Rain
4:53 AM 50.0 °F - 46.9 °F 89% 29.97 in 10.0 mi Calm Calm - 0.04 in Rain Light Rain
5:05 AM 50.0 °F - 48.2 °F 94% 29.99 in 8.0 mi WNW 5.8 mph - 0.00 in Rain Light Rain
5:29 AM 48.2 °F - 46.4 °F 93% 29.99 in 10.0 mi WNW 12.7 mph 17.3 mph 0.01 in Rain Light Rain
5:53 AM 48.9 °F - 46.0 °F 90% 30.00 in 10.0 mi NW 10.4 mph - 0.01 in Rain Light Rain
6:43 AM 46.4 °F 42.4 °F 44.6 °F 93% 30.03 in 9.0 mi WNW 8.1 mph - 0.01 in Rain Light Rain
6:53 AM 46.9 °F - 45.0 °F 93% 30.02 in 7.0 mi WNW 6.9 mph - 0.02 in Rain Light Rain
7:53 AM 46.9 °F - 44.1 °F 90% 30.06 in 10.0 mi West 5.8 mph - 0.00 in   Overcast
8:12 AM 46.4 °F 42.4 °F 44.6 °F 93% 30.06 in 10.0 mi WNW 8.1 mph - N/A   Overcast
8:31 AM 46.4 °F 42.9 °F 42.8 °F 87% 30.08 in 10.0 mi WNW 6.9 mph - N/A   Overcast
8:53 AM 46.9 °F - 43.0 °F 86% 30.09 in 10.0 mi West 9.2 mph - N/A   Overcast
9:09 AM 46.4 °F 41.5 °F 42.8 °F 87% 30.10 in 10.0 mi WNW 10.4 mph 16.1 mph N/A   Overcast
9:25 AM 46.4 °F 40.7 °F 42.8 °F 87% 30.11 in 10.0 mi West 12.7 mph 16.1 mph N/A   Overcast
9:38 AM 46.4 °F 41.1 °F 41.0 °F 81% 30.11 in 10.0 mi WNW 11.5 mph 19.6 mph N/A   Overcast
10:53 AM 50.0 °F - 41.0 °F 71% 30.11 in 10.0 mi WNW 6.9 mph - N/A   Mostly Cloudy
11:39 AM 51.8 °F - 39.2 °F 62% 30.12 in 10.0 mi West 6.9 mph - N/A   Scattered Clouds
11:53 AM 53.1 °F - 39.9 °F 61% 30.12 in 10.0 mi West 11.5 mph 16.1 mph N/A   Scattered Clouds
12:53 PM 54.0 °F - 39.0 °F 57% 30.12 in 10.0 mi Variable 6.9 mph - N/A   Mostly Cloudy
1:53 PM 55.9 °F - 35.1 °F 45% 30.09 in 10.0 mi SW 8.1 mph 16.1 mph N/A   Partly Cloudy
2:53 PM 57.0 °F - 34.0 °F 42% 30.08 in 10.0 mi SSW 4.6 mph - N/A   Clear
3:53 PM 60.1 °F - 34.0 °F 38% 30.07 in 10.0 mi WNW 5.8 mph - N/A   Clear
4:53 PM 60.1 °F - 32.0 °F 35% 30.05 in 10.0 mi Variable 4.6 mph - N/A   Clear
5:53 PM 59.0 °F - 32.0 °F 36% 30.07 in 10.0 mi West 6.9 mph - N/A   Clear
7:53 PM 52.0 °F - 39.9 °F 63% 30.11 in 10.0 mi Calm Calm - N/A   Clear
8:53 PM 51.1 °F - 41.0 °F 68% 30.12 in 10.0 mi Calm Calm - N/A   Clear
9:53 PM 48.9 °F - 43.0 °F 80% 30.14 in 10.0 mi Calm Calm - N/A   Clear
10:53 PM 48.0 °F - 43.0 °F 83% 30.14 in 10.0 mi Calm Calm - N/A   Clear